Location: Ciochowice
(50.4289°N, 18.5217°E)
Time: 03:11:13
(UTC+01:00)

ISS - Pass Details

Date: 01 February 2019
Orbit: 403 x 411 km, 51.6° (Epoch: 20 February)

Event Time Altitude Azimuth Distance (km) Brightness Sun altitude
Rises 18:55:55 0° 283° (WNW) 2,339 1.4 -22.0°
Reaches altitude 10° 18:58:00 10° 283° (WNW) 1,479 0.1 -22.3°
Enters shadow 19:00:32 49° 288° (WNW) 539 -2.9 -22.7°
